Regional Weather Roundup
Issued by NWS

Home | Current Version | Previous Version | Graphics & Text | Print | Product List | Glossary On
Versions: 1 2 3 4 5 6 7 8 9 10 11 12 13 14 15 16 17 18 19 20 21 22 23 24 25 26 27 28 29 30 31 32 33 34 35 36 37 38 39 40 41 42 43 44 45 46 47 48 49 50
000
ASUS45 KBOU 201807
RWRCO

WEATHER ROUNDUP FOR COLORADO
NATIONAL WEATHER SERVICE DENVER/BOULDER CO
1200 PM MDT MON OCT 20 2014

NOTE: "FAIR" INDICATES FEW OR NO CLOUDS BELOW 12000 FEET WITH NO
SIGNIFICANT WEATHER AND/OR OBSTRUCTIONS TO VISIBILITY.

COZ001>005-013-030-031-201900-
...NORTHWEST COLORADO...

CITY           SKY/WX    TMP DP  RH WIND       PRES   REMARKS
CRAIG          SUNNY     66  37  34 VRB3      30.20F
HAYDEN         SUNNY     63  34  34 CALM      30.21F
MEEKER         SUNNY     65  37  35 S3        30.21F
MOUNT WERNER   NOT AVBL
STEAMBOAT SPGS SUNNY     61  35  37 CALM      30.23F
WALDEN         SUNNY     55  32  41 CALM      30.28F
$$

COZ006>008-011-201900-
...WEST CENTRAL VALLEYS...

CITY           SKY/WX    TMP DP  RH WIND       PRES   REMARKS
GRAND JUNCTION SUNNY     66  44  45 SE5       30.16F
MONTROSE       MOSUNNY   66  38  35 CALM      30.21F
EAGLE          MOSUNNY   52  36  54 CALM      30.28F
RIFLE          SUNNY     61  38  42 CALM      30.19F
DELTA          MOSUNNY   67  37  33 CALM      30.19F
NUCLA          MOSUNNY   63  37  39 NW3       30.25F
$$

COZ017>023-064>068-201900-
...SOUTHWEST COLORADO...

CITY           SKY/WX    TMP DP  RH WIND       PRES   REMARKS
DURANGO        SUNNY     59  42  53 SE5       30.27S
CORTEZ         SUNNY     65  41  41 CALM      30.22F
PAGOSA SPRINGS SUNNY     60  36  40 CALM      30.31F
TELLURIDE      SUNNY     58  31  36 S3        30.37S
WOLF CREEK PAS PTSUNNY   39  30  70 S7        30.51F
$$

COZ009-010-012-014-032>034-037-058>063-201900-
...CENTRAL COLORADO...

CITY           SKY/WX    TMP DP  RH WIND       PRES   REMARKS
ASPEN          SUNNY     62  35  36 NW5       30.26F
BUENA VISTA    SUNNY     57  33  40 CALM      30.32F
COPPER MTN     CLOUDY    45  28  53 S18       30.50F
BERTHOUD PASS  CLOUDY    37  34  87 NW3       30.54S
COTTONWOOD PAS MOSUNNY   57  32  38 E5        30.40F
GUNNISON       SUNNY     55  34  44 CALM      30.32F
KREMMLING      MOSUNNY   55  30  38 CALM        N/A
LEADVILLE      PTSUNNY   51  28  41 S9        30.38F
MONARCH PASS   PTSUNNY   41  32  70 SW10      30.61F
SALIDA         SUNNY     59  37  43 CALM      30.37F
SUNLIGHT       CLOUDY    50  34  53 NW3       30.46S
WILKERSON PASS NOT AVBL
$$

COZ069>075-201900-
...SAN LUIS VALLEY/SANGRE DE CRISTO MOUNTAINS...

CITY           SKY/WX    TMP DP  RH WIND       PRES   REMARKS
ALAMOSA        SUNNY     59  36  42 VRB3      30.30F
LA VETA PASS   SUNNY     54  32  43 NE7       30.43F
SAGUACHE       SUNNY     59  37  44 SE6       30.33F
$$

COZ035-036-038>040-201900-
...NORTHERN COLORADO FRONT RANGE...

CITY           SKY/WX    TMP DP  RH WIND       PRES   REMARKS
DENVER INTL AP MOSUNNY   74  34  23 S16       30.15F
DMNS CITY PARK   N/A     73  31  21 S14G24    30.12F
AURORA         MOSUNNY   72  35  26 S12G20    30.16F
FRONT RANGE AP MOSUNNY   75  36  23 S20G25    30.16F
ERIE MUNI ARPT SUNNY     70  34  26 SW3       30.13F
BOULDER MUN AP SUNNY     64  36  34 NE3       30.14F
CENTENNIAL     MOSUNNY   71  34  25 S10G22    30.17F
BROOMFIELD     MOSUNNY   68  37  32 S5        30.16F
FORT COLLINS   SUNNY     64  39  39 CALM      30.15F
LONGMONT       SUNNY     69  37  31 SE3       30.15F
$$

COZ041-046-047-076>085-087-088-201900-
...PIKES PEAK/PALMER DIVIDE AND SOUTHERN FOOTHILLS...

CITY           SKY/WX    TMP DP  RH WIND       PRES   REMARKS
COLO. SPRINGS  MOSUNNY   66  37  34 S13       30.24F
A. F. ACADEMY  SUNNY     66  32  28 S10G18    30.24F
ELLICOTT       NOT AVBL
FALCON         SUNNY     65  35  33 S14       30.28F
FORT CARSON    SUNNY     67  38  34 SE10      30.22F
LIMON          SUNNY     68  35  29 S13       30.21F
MONUMENT HILL  SUNNY     63  32  31 S18G24    30.25S
TRINIDAD       SUNNY     66  36  32 E7        30.23F
$$

COZ042>045-048>051-090-091-201900-
...NORTHEAST COLORADO...

CITY           SKY/WX    TMP DP  RH WIND       PRES   REMARKS
GREELEY ARPT   SUNNY     63  39  42 E3        30.15F
AKRON          SUNNY     73  32  22 S16G22    30.15F
BURLINGTON     SUNNY     72  39  30 S13G21    30.18F
WRAY           SUNNY     76  36  23 SE12G20   30.15F
STERLING       SUNNY     73  45  35 SW6       30.11F
HOLYOKE        SUNNY     77  36  22 S13G18    30.14F
FORT MORGAN    SUNNY     71  40  32 S8        30.14F
$$

COZ086-089-092>099-201900-
...SOUTHEAST COLORADO...

CITY           SKY/WX    TMP DP  RH WIND       PRES   REMARKS
PUEBLO         SUNNY     66  41  40 VRB5      30.18F
LA JUNTA       SUNNY     68  44  42 CALM      30.18F
LAMAR          SUNNY     68  46  45 CALM      30.15F
SPRINGFIELD      N/A     68  47  46 E3        30.18S
$$


USA.gov is the U.S. government's official web portal to all federal, state and local government web resources and services.